Date String (YYYY-MM-DD hh:mm:ss) UTC,Instrument flags,Ambient pressure (hPa),Sample flow (lpm),Bypass flow (lpm),Sample temperature (°C),Ambient temperature (°C),ASC tube jacket temperature (°C),LED temperature (°C),Box temperature (°C),Sample RH (%),Span deviation,Mass concentration (μg/m³),Mass concentration (μg/m³),Mass concentration (μg/m³)
DateTimeUTC,F1_M11,P_M11,Q1_M11,Q2_M11,T1_M11,T2_M11,T3_M11,T4_M11,T5_M11,U1_M11,ZSPAN_M11,X0_M11,X2_M11,X1_M11
2021-10-20 21:00:00,,0829.6,5.01,0.00,29.3,28.6,00.0,38.2,31.1,11.1,0000.0,0010.70,0005.27,0004.51
2021-10-20 21:01:00,,0829.7,4.98,0.00,29.3,28.7,00.0,38.3,31.1,11.2,0000.0,0010.58,0005.25,0004.51
2021-10-20 21:02:00,,0829.7,5.00,0.00,29.3,28.7,00.0,38.3,31.1,11.2,0000.0,0010.83,0005.26,0004.52
2021-10-20 21:03:00,,0829.7,5.01,0.00,29.3,28.7,00.0,38.3,31.1,11.1,0000.0,0011.09,0005.25,0004.52
2021-10-20 21:04:00,,0829.7,5.00,0.00,29.3,28.7,00.0,38.3,31.1,11.1,0000.0,0012.15,0005.24,0004.52
2021-10-20 21:05:00,,0829.8,4.99,0.00,29.3,28.7,00.0,38.3,31.1,11.1,0000.0,0012.01,0005.27,0004.55
2021-10-20 21:06:00,,0829.7,5.01,0.00,29.3,28.7,00.0,38.3,31.1,11.0,0000.0,0012.29,0005.26,0004.54
2021-10-20 21:07:00,,0829.7,5.00,0.00,29.4,28.7,00.0,38.3,31.1,11.0,0000.0,0012.49,0005.21,0004.53
2021-10-20 21:08:00,,0829.7,5.00,0.00,29.4,28.7,00.0,38.3,31.2,10.9,0000.0,0012.29,0005.17,0004.53
2021-10-20 21:09:00,,0829.6,4.99,0.00,29.4,28.8,00.0,38.4,31.2,10.9,0000.0,0011.56,0005.20,0004.56
2021-10-20 21:10:00,,0829.6,4.99,0.00,29.4,28.8,00.0,38.4,31.2,10.9,0000.0,0012.04,0005.20,0004.57
2021-10-20 21:11:00,,0829.7,5.00,0.00,29.5,28.8,00.0,38.4,31.2,10.9,0000.0,0012.57,0005.15,0004.57
2021-10-20 21:12:00,,0829.6,5.01,0.00,29.5,28.8,00.0,38.4,31.3,10.9,0000.0,0012.59,0005.15,0004.56
2021-10-20 21:13:00,,0829.6,5.00,0.00,29.5,28.8,00.0,38.4,31.3,10.9,0000.0,0012.24,0005.10,0004.56
2021-10-20 21:14:00,,0829.7,5.00,0.00,29.5,28.8,00.0,38.4,31.3,10.9,0000.0,0012.18,0005.05,0004.54
2021-10-20 21:15:00,,0829.6,4.99,0.00,29.5,28.8,00.0,38.4,31.3,10.9,0000.0,0011.07,0005.02,0004.51
2021-10-20 21:16:00,,0830.0,4.98,0.00,29.5,28.9,00.0,38.5,31.3,10.8,0000.0,0011.41,0005.03,0004.49
2021-10-20 21:17:00,,0829.7,5.00,0.00,29.5,28.9,00.0,38.5,31.3,10.8,0000.0,0011.26,0005.03,0004.47
2021-10-20 21:18:00,,0829.6,5.01,0.00,29.6,28.9,00.0,38.5,31.3,10.9,0000.0,0010.98,0005.00,0004.43
2021-10-20 21:19:00,,0829.6,4.99,0.00,29.6,28.9,00.0,38.5,31.4,10.9,0000.0,0012.09,0004.96,0004.38
2021-10-20 21:20:00,,0829.6,5.01,0.00,29.6,29.0,00.0,38.5,31.4,10.9,0000.0,0013.73,0004.90,0004.32
2021-10-20 21:21:00,,0829.6,5.00,0.00,29.6,29.0,00.0,38.5,31.4,10.9,0000.0,0013.29,0004.86,0004.29
2021-10-20 21:22:00,,0829.6,5.01,0.00,29.7,29.0,00.0,38.6,31.5,10.9,0000.0,0013.48,0004.82,0004.24
2021-10-20 21:23:00,,0829.6,4.98,0.00,29.7,29.1,00.0,38.6,31.5,10.9,0000.0,0014.78,0004.77,0004.19
2021-10-20 21:24:00,,0829.6,5.01,0.00,29.7,29.1,00.0,38.6,31.5,10.9,0000.0,0014.64,0004.72,0004.14
2021-10-20 21:25:00,,0829.6,5.01,0.00,29.7,29.1,00.0,38.6,31.5,10.8,0000.0,0015.10,0004.72,0004.12
2021-10-20 21:26:00,,0829.5,4.98,0.00,29.7,29.1,00.0,38.6,31.5,10.8,0000.0,0015.25,0004.71,0004.10
2021-10-20 21:27:00,,0829.6,5.01,0.00,29.7,29.1,00.0,38.7,31.5,10.8,0000.0,0015.52,0004.64,0004.05
2021-10-20 21:28:00,,0829.6,5.00,0.00,29.8,29.1,00.0,38.7,31.5,10.8,0000.0,0015.38,0004.60,0004.01
2021-10-20 21:29:00,,0829.6,5.00,0.00,29.8,29.2,00.0,38.7,31.5,10.6,0000.0,0016.48,0004.58,0003.99
2021-10-20 21:30:00,,0829.6,4.98,0.00,29.8,29.2,00.0,38.7,31.6,10.6,0000.0,0016.94,0004.59,0003.97
2021-10-20 21:31:00,,0829.6,5.01,0.00,29.8,29.2,00.0,38.7,31.6,10.7,0000.0,0015.51,0004.56,0003.96
2021-10-20 21:32:00,,0829.6,5.00,0.00,29.8,29.2,00.0,38.8,31.7,10.6,0000.0,0015.81,0004.53,0003.93
2021-10-20 21:33:00,,0829.6,5.00,0.00,29.9,29.3,00.0,38.8,31.7,10.6,0000.0,0015.86,0004.51,0003.91
2021-10-20 21:34:00,,0829.9,5.01,0.00,29.9,29.3,00.0,38.8,31.7,10.6,0000.0,0014.88,0004.48,0003.89
2021-10-20 21:35:00,,0829.6,5.00,0.00,29.9,29.3,00.0,38.8,31.7,10.6,0000.0,0015.00,0004.50,0003.88
2021-10-20 21:36:00,,0829.7,5.00,0.00,29.9,29.3,00.0,38.8,31.7,10.6,0000.0,0014.48,0004.47,0003.85
2021-10-20 21:37:00,,0829.7,4.99,0.00,29.9,29.3,00.0,38.9,31.7,10.6,0000.0,0014.04,0004.43,0003.81
2021-10-20 21:38:00,,0829.7,5.01,0.00,29.9,29.3,00.0,38.9,31.7,10.5,0000.0,0013.77,0004.40,0003.78
2021-10-20 21:39:00,,0829.7,5.01,0.00,29.9,29.3,00.0,38.9,31.7,10.5,0000.0,0014.12,0004.38,0003.75
2021-10-20 21:40:00,,0829.6,4.98,0.00,30.0,29.3,00.0,38.9,31.7,10.5,0000.0,0014.28,0004.30,0003.71
2021-10-20 21:41:00,,0829.6,5.01,0.00,30.0,29.3,00.0,38.9,31.7,10.5,0000.0,0012.88,0004.25,0003.66
2021-10-20 21:42:00,,0829.6,5.00,0.00,30.0,29.3,00.0,38.9,31.8,10.5,0000.0,0012.44,0004.22,0003.63
2021-10-20 21:43:00,,0829.6,4.99,0.00,30.0,29.3,00.0,38.9,31.8,10.4,0000.0,0011.71,0004.26,0003.63
2021-10-20 21:44:00,,0829.7,5.00,0.00,30.0,29.4,00.0,38.9,31.7,10.5,0000.0,0011.23,0004.24,0003.62
2021-10-20 21:45:00,,0829.6,4.99,0.00,30.0,29.3,00.0,38.9,31.7,10.5,0000.0,0010.51,0004.21,0003.61
2021-10-20 21:46:00,,0829.5,4.99,0.00,30.0,29.3,00.0,38.9,31.7,10.5,0000.0,0010.20,0004.20,0003.60
2021-10-20 21:47:00,,0829.6,5.01,0.00,29.9,29.3,00.0,38.9,31.7,10.6,0000.0,0010.57,0004.18,0003.58
2021-10-20 21:48:00,,0829.6,4.99,0.00,29.9,29.3,00.0,38.9,31.7,10.7,0000.0,0011.38,0004.14,0003.55
2021-10-20 21:49:00,,0829.6,5.01,0.00,29.9,29.3,00.0,38.9,31.6,10.7,0000.0,0011.80,0004.11,0003.53
2021-10-20 21:50:00,,0829.6,4.99,0.00,29.9,29.3,00.0,38.9,31.7,10.7,0000.0,0011.36,0004.12,0003.51
2021-10-20 21:51:00,,0829.6,4.99,0.00,29.9,29.2,00.0,38.9,31.6,10.7,0000.0,0011.00,0004.17,0003.50
2021-10-20 21:52:00,,0829.7,5.01,0.00,29.9,29.2,00.0,38.9,31.6,10.7,0000.0,0011.12,0004.18,0003.50
2021-10-20 21:53:00,,0829.6,4.99,0.00,29.9,29.2,00.0,38.9,31.6,10.7,0000.0,0012.06,0004.20,0003.50
2021-10-20 21:54:00,,0829.6,5.00,0.00,29.9,29.2,00.0,38.9,31.6,10.7,0000.0,0012.19,0004.15,0003.47
2021-10-20 21:55:00,,0829.7,5.00,0.00,29.9,29.2,00.0,38.9,31.7,10.7,0000.0,0012.00,0004.11,0003.45
2021-10-20 21:56:00,,0829.7,5.01,0.00,29.9,29.2,00.0,38.9,31.7,10.7,0000.0,0012.06,0004.09,0003.43
2021-10-20 21:57:00,,0829.6,5.01,0.00,29.9,29.2,00.0,38.9,31.7,10.7,0000.0,0012.65,0004.07,0003.43
2021-10-20 21:58:00,,0829.6,4.99,0.00,29.9,29.2,00.0,38.9,31.7,10.7,0000.0,0012.85,0004.04,0003.42
2021-10-20 21:59:00,,0829.7,5.01,0.00,29.9,29.3,00.0,38.9,31.7,10.7,0000.0,0012.82,0004.05,0003.43
